Flag Weather past 2 weeks in Ushuaia, Tierra del Fuego, Argentina

Now
32 °F

Snow. Broken clouds.


Feels Like: 22 °F
Forecast: 32 / 38 °F
Wind: 14 mph from Southwest

Location: Ushuaia Aerodrome

Current Time: Oct 31, 2014 at 7:56:58 AM

Latest Report: Oct 31, 2014 at 7:00 AM


Visibility: 4 mi

Pressure: 29.98 "Hg

Humidity: 87%

Dew point: 28 °F

Location of UshuaiaLocation

Historic Weather in Ushuaia — Graph

°F

Ushuaia temperature yesterday

Maximum temperature yesterday: 41 °F (at 12:00 AM)
Minimum temperature yesterday: 30 °F (at 9:00 AM)
Average temperature yesterday: 35 °F

Past Weeks' High & Low Weather Summary

 TemperatureHumidityPressure
High59 °F (Oct 19, 4:00 PM)100% (Oct 30, 8:00 AM)29.95 "Hg (Oct 30, 8:00 AM)
Low30 °F (Oct 30, 9:00 AM)28% (Oct 29, 11:00 AM)28.88 "Hg (Oct 29, 5:00 PM)
Average43 °F67%29.41 "Hg
* Reported Oct 16 5:00 AM — Oct 31 5:00 AM, Ushuaia, Weather by CustomWeather, © 2014

Note: Actual official high and low records may vary slightly from our data, if they occured in-between our weather recording intervals... More about our weather records

Advertising

Ushuaia weather history for previous 24 hours

 ConditionsComfort  
Time TempWeatherWind HumidityBarometerVisibility
5:00 AM
Oct 31
32 °FScattered showers. More clouds than sun.14 mph80%29.95 "Hg5 mi
4:00 AM32 °FSnow. Overcast.18 mph87%29.92 "Hg3 mi
3:00 AM32 °FSnow. Overcast.17 mph80%29.89 "Hg3 mi
2:00 AM32 °FHeavy snow. Overcast.17 mph80%29.89 "Hg2 mi
1:00 AM32 °FLight snow. Overcast.23 mph80%29.86 "Hg5 mi
12:00 AM34 °FScattered showers. Overcast.23 mph81%29.77 "Hg5 mi
11:00 PM
Oct 30
34 °FLight snow. Overcast.25 mph81%29.77 "Hg2 mi
10:00 PM32 °FLight snow. Passing clouds.21 mph87%29.74 "Hg3 mi
9:00 PM32 °FSnow. Low clouds.25 mph93%29.71 "Hg1 mi
8:00 PM32 °FLight snow. Passing clouds.25 mph93%29.71 "Hg3 mi
7:00 PM32 °FLight snow. Low clouds.29 mph93%29.65 "Hg1 mi
6:00 PM34 °FSnow showers. Broken clouds.20 mph81%29.62 "Hg5 mi
5:00 PM34 °FScattered showers. Partly sunny.20 mph81%29.59 "HgN/A
4:00 PM36 °FScattered showers. Broken clouds.23 mph75%29.56 "HgN/A
3:00 PM36 °FScattered showers. Broken clouds.26 mph75%29.53 "HgN/A
2:00 PM36 °FScattered showers. Broken clouds.14 mph75%29.50 "HgN/A
1:00 PM36 °FScattered showers. Broken clouds.14 mph75%29.50 "HgN/A
12:00 PM34 °FSnow showers. Broken clouds.15 mph81%29.47 "Hg3 mi
11:00 AM34 °FSnow. Overcast.17 mph87%29.45 "Hg0 mi
10:00 AM32 °FSnow showers. Broken clouds.16 mph93%29.42 "Hg2 mi
9:00 AM30 °FSnow. Overcast.16 mph100%29.39 "Hg1 mi
8:20 AM32 °FSnow. Overcast.10 mph100%29.36 "Hg0 mi
8:00 AM32 °FSnow. Overcast.14 mph100%29.36 "Hg1 mi
7:00 AM34 °FSnow. Broken clouds.21 mph81%29.30 "Hg2 mi
Weather by CustomWeather, © 2014

See weather overviewHow to use our weather pages